Weather Roundup
Issued by NWS

Home | Current Version | Previous Version | Text Only | Print | Product List | Glossary On
Versions: 1 2 3 4 5 6 7 8 9 10 11 12 13 14 15 16 17 18 19 20 21 22 23 24 25 26 27 28 29 30 31 32 33 34 35 36 37 38 39 40 41 42 43 44 45 46 47 48 49 50
000
NZUS93 KARX 020410
HRRWXR

CURRENT HOURLY OBSERVATIONS ACROSS
MUCH OF THE UPPER MISSISSIPPI VALLEY
NATIONAL WEATHER SERVICE LA CROSSE WI
1100 PM CDT SAT AUG 01 2015


...SOUTHEAST MINNESOTA...


CITY           SKY/WX    TMP DP  RH WIND       PRES   REMARKS
ROCHESTER      CLEAR     70  66  87 S12       29.85F
ROCHESTER/MAYO FAIR      75  65  69 S12G20    29.84S
WINONA         CLEAR     77  66  69 SW6       29.81F
AUSTIN         CLEAR     70  64  83 S6        29.86S
ALBERT LEA     CLEAR     73  66  78 S8        29.85F
DODGE CENTER   CLEAR     72  64  78 S13       29.83F
PRESTON        CLEAR     72  67  84 SW8       29.87F
OWATONNA       CLEAR     72  66  83 S10       29.83S
FARIBAULT      CLEAR     72  66  83 S5        29.81F
$$

...ELSEWHERE IN MINNESOTA...


CITY           SKY/WX    TMP DP  RH WIND       PRES   REMARKS
MINNEAPOLIS    MOCLDY    79  67  66 SW12      29.77F
INTNL FALLS    PTCLDY    59  55  87 SW3       29.68F
DULUTH         PTCLDY    67  58  72 W7        29.74F
RED WING       CLEAR     79  64  61 SW7       29.77F
REDWOOD FALLS  CLEAR     73  64  73 S9        29.79R
MANKATO        PTCLDY    73  64  73 SW10      29.82R
WORTHINGTON    CLEAR     72  64  78 S15       29.86F
FAIRMONT       CLEAR     73  63  68 SW9       29.85F
$$

...SOUTHWEST WISCONSIN...


CITY           SKY/WX    TMP DP  RH WIND       PRES   REMARKS
LA CROSSE      CLEAR     77  67  71 S8        29.83R
PRAIRIE DU CHI CLEAR     75  67  76 CALM      29.86F
BOSCOBEL       CLEAR     69  66  90 CALM      29.86F
LONE ROCK      FAIR      68  63  84 CALM      29.87S
PLATTEVILLE    CLEAR     71  69  95 S7        29.90S
FORT MC COY    CLEAR     66  60  82 CALM      29.85S
CAMP DOUGLAS   PTCLDY    67  67 100 CALM      29.84S
VIROQUA        FAIR      71  65  83 SW7       29.88S
WIS DELLS      CLEAR     71  60  70 SW7       29.86S
$$

...ELSEWHERE IN WISCONSIN...


CITY           SKY/WX    TMP DP  RH WIND       PRES   REMARKS
MILWAUKEE      CLEAR     71  61  70 S7        29.86F
MADISON        PTCLDY    74  63  68 SW3       29.86F
GREEN BAY      CLEAR     63  56  78 S5        29.82F
EAU CLAIRE     PTCLDY    68  62  81 NE3       29.79F
BLACK RVR FLS  FAIR      64  64  97 CALM      29.83S
MEDFORD        CLEAR     63  58  85 S3        29.84S
WAUSAU         CLEAR     68  57  68 SW6       29.82S
WIS RAPIDS     CLEAR     67  58  72 CALM      29.85F
MARSHFIELD     CLEAR     65  59  81 SW5       29.84F
RICE LAKE      PTCLDY    67  61  80 CALM      29.81F
$$

...NORTHEAST IOWA...


CITY           SKY/WX    TMP DP  RH WIND       PRES   REMARKS
DECORAH        CLEAR     72  68  88 S5        29.87S
MASON CITY     PTCLDY    73  69  87 SW9       29.89S
CHARLES CITY   PTCLDY    70  70 100 S7        29.89S
OELWEIN          N/A     72  70  94 S7        29.90S
$$

...ELSEWHERE IN IOWA...


CITY           SKY/WX    TMP DP  RH WIND       PRES   REMARKS
DES MOINES     PTCLDY    77  70  79 S5        29.91R
IOWA CITY      CLEAR     76  70  82 S6        29.92S
FORT DODGE     CLEAR     72  66  83 S7        29.90S
$$

...NORTHERN ILLINOIS...


CITY           SKY/WX    TMP DP  RH WIND       PRES   REMARKS
CHICAGO-OHARE  CLEAR     76  64  66 W8        29.89F
CHICAGO-MIDWAY PTCLDY    78  63  59 SW10      29.90F
MOLINE         CLEAR     74  68  81 S7        29.91S
ROCKFORD       CLEAR     70  65  84 S6        29.91F
PEORIA         PTCLDY    74  65  73 SW5       29.95S
$$

NOTE: "FAIR" INDICATES FEW OR NO CLOUDS BELOW 12,000 FEET WITH NO
SIGNIFICANT WEATHER AND/OR OBSTRUCTIONS TO VISIBILITY. WIND
SPEEDS ARE IN MILES-PER-HOUR.



USA.gov is the U.S. government's official web portal to all federal, state and local government web resources and services.